闪电 2-10星 (MOLNIYA 2-10)

导读 | 星芒AI

MOLNIYA 2-10 是一颗俄罗斯军用通信卫星,于2000年12月14日由质子-K火箭从拜科努尔航天发射场发射升空。该卫星运行在高度椭圆轨道(Molniya轨道),主要用于国家安全和军事通信。卫星由俄罗斯信息工业部负责管理,设计寿命约为5年。MOLNIYA 2-10 在轨期间为俄罗斯提供了重要的战略通信支持,是俄罗斯空间通信系统的重要组成部分。

基本信息
目录编号:
7376
目录名称:
MOLNIYA 2-10
国际标识:
1974-056A
轨道中心:
EARTH
卫星名称:
闪电 2-10星
卫星全名:
闪电 2-10星 (MOLNIYA 2-10)
卫星状态:
在轨 (已飞行18773 天)
发射日期:
1974-07-23 UTC
国别 :
俄罗斯(独联体) (CIS)
星等 :
--
轨道信息
数据来源 国际轨道数据
星历时间: 2025-12-12T13:43:02+0800
3天前
查看轨道信息
半长轴: 26516.719km
偏心率: 0.6774392
轨道倾角: 65.343°
近地点辐角 271.817°
升交点赤经 319.311°
平近点角 18.085°
近地点: 2175.119km
远地点: 38102.049km
周期: 716.208分钟
每日圈数: 2.010588
详细信息
平衡模式:
三轴稳定
覆盖范围:
全球
运营商:
俄罗斯国家航天集团
运营商所在国:
俄罗斯
制造商(研发单位):
普里克拉德诺伊·梅哈尼基设计局
制造商所在国:
俄罗斯联邦
使用方式:
暂无
卫星简介
闪电(Molniya (Satellite))系列卫星是苏联/俄罗斯于1965年至2004年间发射的军事和通信卫星。这些卫星使用高度偏心的椭圆轨道,称为Molniya轨道(即闪电轨道),在高纬度地区具有较长的停留时间。该卫星状态未知。
2D轨道图
3D轨道图
轨道高度分析图
轨道倾角分析图
轨道综合分析图
查看轨道综合分析图